Time,TemperatureF,DewpointF,PressureIn,WindDirection,WindDirectionDegrees,WindSpeedMPH,WindSpeedGustMPH,Humidity,HourlyPrecipIn,Conditions,Clouds,dailyrainin,SoftwareType,DateUTC
2013-06-06 00:00:00,60.4,40.3,29.68,North,0,57.0,57.0,48,0.00,,,0.00,WUHU21623XXSP,2013-06-06 04:00:00,
2013-06-06 00:06:00,60.4,40.3,29.68,NE,45,0.9,57.0,48,0.00,,,0.00,WUHU21623XXSP,2013-06-06 04:06:00,
2013-06-06 00:11:00,60.4,40.3,29.67,North,0,15.2,57.0,48,0.00,,,0.00,WUHU21623XXSP,2013-06-06 04:11:00,
2013-06-06 00:16:00,60.4,40.3,29.67,North,0,57.0,57.0,48,0.00,,,0.00,WUHU21623XXSP,2013-06-06 04:16:00,
2013-06-06 00:21:00,60.4,40.3,29.67,North,6,11.0,57.0,48,0.00,,,0.00,WUHU21623XXSP,2013-06-06 04:21:00,
2013-06-06 00:26:00,60.3,40.2,29.67,North,4,15.3,57.0,48,0.00,,,0.00,WUHU21623XXSP,2013-06-06 04:26:00,
2013-06-06 00:31:00,60.4,40.3,29.68,North,358,20.4,57.0,48,0.00,,,0.00,WUHU21623XXSP,2013-06-06 04:31:00,
2013-06-06 00:36:00,60.3,40.2,29.67,North,5,16.1,57.0,48,0.00,,,0.00,WUHU21623XXSP,2013-06-06 04:36:00,
2013-06-06 00:42:00,60.3,40.2,29.68,North,0,57.0,57.0,48,0.00,,,0.00,WUHU21623XXSP,2013-06-06 04:42:00,
2013-06-06 00:47:00,60.3,40.2,29.68,SSE,157,0.0,57.0,48,0.00,,,0.00,WUHU21623XXSP,2013-06-06 04:47:00,
2013-06-06 00:52:00,60.3,40.2,29.68,NNE,33,3.3,57.0,48,0.00,,,0.00,WUHU21623XXSP,2013-06-06 04:52:00,
2013-06-06 00:57:00,60.3,40.2,29.68,NE,45,0.0,57.0,48,0.00,,,0.00,WUHU21623XXSP,2013-06-06 04:57:00,
2013-06-06 01:02:00,59.9,39.9,29.68,NNE,22,1.6,1.6,48,0.00,,,0.00,WUHU21623XXSP,2013-06-06 05:02:00,
2013-06-06 01:07:00,59.9,39.9,29.68,NNE,28,2.9,5.4,48,0.00,,,0.00,WUHU21623XXSP,2013-06-06 05:07:00,
2013-06-06 01:12:00,59.7,39.7,29.68,NNE,22,2.0,57.0,48,0.00,,,0.00,WUHU21623XXSP,2013-06-06 05:12:00,
2013-06-06 01:18:00,59.7,39.7,29.68,East,90,0.0,57.0,48,0.00,,,0.00,WUHU21623XXSP,2013-06-06 05:18:00,
2013-06-06 01:23:00,59.7,39.7,29.68,NNE,15,1.3,2.5,48,0.00,,,0.00,WUHU21623XXSP,2013-06-06 05:23:00,
2013-06-06 01:28:00,59.7,39.7,29.67,NNE,18,2.1,3.1,48,0.00,,,0.00,WUHU21623XXSP,2013-06-06 05:28:00,
2013-06-06 01:33:00,59.5,39.5,29.67,NNE,22,0.0,3.8,48,0.00,,,0.00,WUHU21623XXSP,2013-06-06 05:33:00,
2013-06-06 01:38:00,59.4,39.4,29.67,NE,45,1.3,3.8,48,0.00,,,0.00,WUHU21623XXSP,2013-06-06 05:38:00,
2013-06-06 01:43:00,59.4,39.4,29.67,NNE,16,1.6,2.2,48,0.00,,,0.00,WUHU21623XXSP,2013-06-06 05:43:00,
2013-06-06 01:48:00,59.2,39.2,29.67,ESE,117,1.8,2.5,48,0.00,,,0.00,WUHU21623XXSP,2013-06-06 05:48:00,
2013-06-06 01:54:00,59.2,39.2,29.67,NNE,30,2.9,5.1,48,0.00,,,0.00,WUHU21623XXSP,2013-06-06 05:54:00,
2013-06-06 01:59:00,59.2,39.2,29.66,NE,56,1.9,5.1,48,0.00,,,0.00,WUHU21623XXSP,2013-06-06 05:59:00,
2013-06-06 02:03:00,59.2,39.2,29.66,NE,45,0.0,5.1,48,0.00,,,0.00,WUHU21623XXSP,2013-06-06 06:03:00,
2013-06-06 02:09:00,59.2,39.2,29.66,NNE,30,2.0,3.4,48,0.00,,,0.00,WUHU21623XXSP,2013-06-06 06:09:00,
2013-06-06 02:14:00,59.2,39.2,29.66,NE,45,2.2,3.4,48,0.00,,,0.00,WUHU21623XXSP,2013-06-06 06:14:00,
2013-06-06 02:19:00,59.0,39.0,29.66,NE,45,0.0,3.4,48,0.00,,,0.00,WUHU21623XXSP,2013-06-06 06:19:00,
2013-06-06 02:24:00,59.0,39.0,29.66,North,0,1.8,2.2,48,0.00,,,0.00,WUHU21623XXSP,2013-06-06 06:24:00,
2013-06-06 02:29:00,58.8,38.8,29.65,North,0,1.5,3.6,48,0.00,,,0.00,WUHU21623XXSP,2013-06-06 06:29:00,
2013-06-06 02:35:00,58.8,38.8,29.65,NNE,22,1.8,3.6,48,0.00,,,0.00,WUHU21623XXSP,2013-06-06 06:35:00,
2013-06-06 02:40:00,58.6,38.7,29.65,North,0,1.9,3.1,48,0.00,,,0.00,WUHU21623XXSP,2013-06-06 06:40:00,
2013-06-06 02:45:00,58.6,38.7,29.65,ENE,65,2.8,3.4,48,0.00,,,0.00,WUHU21623XXSP,2013-06-06 06:45:00,
2013-06-06 02:50:00,58.5,38.6,29.65,South,180,3.4,3.4,48,0.00,,,0.00,WUHU21623XXSP,2013-06-06 06:50:00,
2013-06-06 02:55:00,58.5,38.6,29.65,NNE,22,2.5,3.4,48,0.00,,,0.00,WUHU21623XXSP,2013-06-06 06:55:00,
2013-06-06 03:00:00,58.1,38.2,29.65,North,0,57.0,57.0,48,0.00,,,0.00,WUHU21623XXSP,2013-06-06 07:00:00,
2013-06-06 03:12:00,58.1,38.2,29.65,North,1,29.3,57.0,48,0.00,,,0.00,WUHU21623XXSP,2013-06-06 07:12:00,
2013-06-06 03:17:00,57.9,38.0,29.65,North,7,1.5,57.0,48,0.00,,,0.00,WUHU21623XXSP,2013-06-06 07:17:00,
2013-06-06 03:22:00,57.9,38.0,29.65,North,0,19.8,57.0,48,0.00,,,0.00,WUHU21623XXSP,2013-06-06 07:22:00,
2013-06-06 03:27:00,57.9,38.0,29.64,NNE,22,1.7,57.0,48,0.00,,,0.00,WUHU21623XXSP,2013-06-06 07:27:00,
2013-06-06 03:32:00,57.7,37.8,29.64,North,0,30.5,57.0,48,0.00,,,0.00,WUHU21623XXSP,2013-06-06 07:32:00,
2013-06-06 03:37:00,57.6,37.7,29.63,North,1,23.6,57.0,48,0.00,,,0.00,WUHU21623XXSP,2013-06-06 07:37:00,
2013-06-06 03:42:00,57.6,37.7,29.63,North,0,57.0,57.0,48,0.00,,,0.00,WUHU21623XXSP,2013-06-06 07:42:00,
2013-06-06 03:47:00,57.6,37.7,29.63,North,0,2.7,57.0,48,0.00,,,0.00,WUHU21623XXSP,2013-06-06 07:47:00,
2013-06-06 03:52:00,57.4,37.6,29.64,ENE,67,1.3,57.0,48,0.00,,,0.00,WUHU21623XXSP,2013-06-06 07:52:00,
2013-06-06 03:57:00,57.6,37.7,29.64,North,0,1.8,57.0,48,0.00,,,0.00,WUHU21623XXSP,2013-06-06 07:57:00,
2013-06-06 04:02:00,57.4,37.6,29.64,NNE,22,3.4,6.0,48,0.00,,,0.00,WUHU21623XXSP,2013-06-06 08:02:00,
2013-06-06 04:07:00,57.4,37.6,29.64,NNW,337,4.7,57.0,48,0.00,,,0.00,WUHU21623XXSP,2013-06-06 08:07:00,
2013-06-06 04:12:00,57.2,37.4,29.63,North,0,57.0,57.0,48,0.00,,,0.00,WUHU21623XXSP,2013-06-06 08:12:00,
2013-06-06 04:17:00,57.2,37.4,29.63,NE,54,3.1,57.0,48,0.00,,,0.00,WUHU21623XXSP,2013-06-06 08:17:00,
2013-06-06 04:22:00,57.0,37.2,29.63,North,0,57.0,57.0,48,0.00,,,0.00,WUHU21623XXSP,2013-06-06 08:22:00,
2013-06-06 04:27:00,56.8,37.0,29.63,North,0,0.9,57.0,48,0.00,,,0.00,WUHU21623XXSP,2013-06-06 08:27:00,
2013-06-06 04:32:00,56.8,37.0,29.63,North,0,29.0,57.0,48,0.00,,,0.00,WUHU21623XXSP,2013-06-06 08:32:00,
2013-06-06 04:37:00,56.8,37.0,29.63,NE,45,0.9,57.0,48,0.00,,,0.00,WUHU21623XXSP,2013-06-06 08:37:00,
2013-06-06 04:42:00,56.8,37.0,29.63,NE,39,3.0,57.0,48,0.00,,,0.00,WUHU21623XXSP,2013-06-06 08:42:00,
2013-06-06 04:47:00,56.8,37.0,29.62,NW,315,0.0,57.0,48,0.00,,,0.00,WUHU21623XXSP,2013-06-06 08:47:00,
2013-06-06 04:52:00,56.8,37.0,29.62,NNE,22,0.0,57.0,48,0.00,,,0.00,WUHU21623XXSP,2013-06-06 08:52:00,
2013-06-06 04:57:00,56.8,37.0,29.62,NNE,30,2.5,57.0,48,0.00,,,0.00,WUHU21623XXSP,2013-06-06 08:57:00,
2013-06-06 05:02:00,56.7,36.9,29.62,WNW,292,3.8,57.0,48,0.00,,,0.00,WUHU21623XXSP,2013-06-06 09:02:00,
2013-06-06 05:07:00,56.7,36.9,29.62,NE,40,2.8,57.0,48,0.00,,,0.00,WUHU21623XXSP,2013-06-06 09:07:00,
2013-06-06 05:12:00,56.7,36.9,29.61,NNE,29,2.9,57.0,48,0.00,,,0.00,WUHU21623XXSP,2013-06-06 09:12:00,
2013-06-06 05:17:00,56.7,36.9,29.61,NW,316,2.0,57.0,48,0.00,,,0.00,WUHU21623XXSP,2013-06-06 09:17:00,
2013-06-06 05:22:00,56.7,36.9,29.61,SE,143,2.6,57.0,48,0.00,,,0.00,WUHU21623XXSP,2013-06-06 09:22:00,
2013-06-06 05:27:00,56.7,36.9,29.61,NNW,346,1.9,57.0,48,0.00,,,0.00,WUHU21623XXSP,2013-06-06 09:27:00,
2013-06-06 05:32:00,56.7,36.9,29.61,NNE,24,1.2,57.0,48,0.00,,,0.00,WUHU21623XXSP,2013-06-06 09:32:00,
2013-06-06 05:37:00,56.7,36.9,29.60,ENE,67,2.0,57.0,48,0.00,,,0.00,WUHU21623XXSP,2013-06-06 09:37:00,
2013-06-06 05:42:00,56.7,36.9,29.61,North,0,57.0,57.0,48,0.00,,,0.00,WUHU21623XXSP,2013-06-06 09:42:00,
2013-06-06 05:47:00,56.5,36.7,29.61,North,0,0.0,57.0,48,0.00,,,0.00,WUHU21623XXSP,2013-06-06 09:47:00,
2013-06-06 05:52:00,56.5,36.7,29.61,North,355,13.1,57.0,48,0.00,,,0.00,WUHU21623XXSP,2013-06-06 09:52:00,
2013-06-06 05:57:00,56.3,36.5,29.61,North,359,20.2,57.0,48,0.00,,,0.00,WUHU21623XXSP,2013-06-06 09:57:00,
2013-06-06 06:02:00,56.3,36.5,29.61,North,359,21.6,57.0,48,0.00,,,0.00,WUHU21623XXSP,2013-06-06 10:02:00,
2013-06-06 06:07:00,56.1,36.4,29.61,NNW,333,2.4,57.0,48,0.00,,,0.00,WUHU21623XXSP,2013-06-06 10:07:00,
2013-06-06 06:12:00,56.1,36.4,29.61,North,0,30.2,57.0,48,0.00,,,0.00,WUHU21623XXSP,2013-06-06 10:12:00,
2013-06-06 06:17:00,56.1,36.4,29.61,North,3,15.5,57.0,48,0.00,,,0.00,WUHU21623XXSP,2013-06-06 10:17:00,
2013-06-06 06:23:00,56.1,36.4,29.61,NNW,337,1.5,57.0,48,0.00,,,0.00,WUHU21623XXSP,2013-06-06 10:23:00,
2013-06-06 06:27:00,56.1,36.4,29.61,NNW,342,2.3,57.0,48,0.00,,,0.00,WUHU21623XXSP,2013-06-06 10:27:00,
2013-06-06 06:32:00,56.1,36.4,29.61,North,357,10.1,57.0,48,0.00,,,0.00,WUHU21623XXSP,2013-06-06 10:32:00,
2013-06-06 06:37:00,56.1,36.4,29.61,NNE,28,3.0,57.0,48,0.00,,,0.00,WUHU21623XXSP,2013-06-06 10:37:00,
2013-06-06 06:42:00,56.1,36.4,29.61,North,3,16.3,57.0,48,0.00,,,0.00,WUHU21623XXSP,2013-06-06 10:42:00,
2013-06-06 06:48:00,56.3,36.5,29.61,NNW,337,2.7,57.0,48,0.00,,,0.00,WUHU21623XXSP,2013-06-06 10:48:00,
2013-06-06 06:53:00,56.3,36.5,29.61,NNE,15,15.1,57.0,48,0.00,,,0.00,WUHU21623XXSP,2013-06-06 10:53:00,
2013-06-06 06:58:00,56.3,36.5,29.61,NNE,22,0.0,57.0,48,0.00,,,0.00,WUHU21623XXSP,2013-06-06 10:58:00,
2013-06-06 07:03:00,56.3,36.5,29.60,NNE,22,0.0,57.0,48,0.00,,,0.00,WUHU21623XXSP,2013-06-06 11:03:00,
2013-06-06 07:08:00,56.3,36.5,29.60,NNE,22,0.0,57.0,48,0.00,,,0.00,WUHU21623XXSP,2013-06-06 11:08:00,
2013-06-06 07:13:00,56.5,36.7,29.60,North,1,20.9,57.0,48,0.00,,,0.00,WUHU21623XXSP,2013-06-06 11:13:00,
2013-06-06 07:18:00,56.5,36.7,29.60,NNE,22,0.7,57.0,48,0.00,,,0.00,WUHU21623XXSP,2013-06-06 11:18:00,
2013-06-06 07:23:00,56.5,36.7,29.60,North,0,57.0,57.0,48,0.00,,,0.00,WUHU21623XXSP,2013-06-06 11:23:00,
2013-06-06 07:28:00,56.7,36.9,29.60,NNE,26,1.7,57.0,48,0.00,,,0.00,WUHU21623XXSP,2013-06-06 11:28:00,
2013-06-06 07:33:00,56.7,36.9,29.60,NE,45,2.3,57.0,48,0.00,,,0.00,WUHU21623XXSP,2013-06-06 11:33:00,
2013-06-06 07:38:00,56.7,36.9,29.59,NE,45,0.9,57.0,48,0.00,,,0.00,WUHU21623XXSP,2013-06-06 11:38:00,
2013-06-06 07:43:00,56.7,36.9,29.59,NNE,26,1.9,57.0,48,0.00,,,0.00,WUHU21623XXSP,2013-06-06 11:43:00,
2013-06-06 07:48:00,56.7,36.9,29.59,NNE,22,1.1,5.8,48,0.00,,,0.00,WUHU21623XXSP,2013-06-06 11:48:00,
2013-06-06 07:53:00,56.8,37.0,29.59,NNE,22,0.0,5.1,48,0.00,,,0.00,WUHU21623XXSP,2013-06-06 11:53:00,
2013-06-06 07:58:00,56.8,37.0,29.59,SE,145,2.3,7.2,48,0.00,,,0.00,WUHU21623XXSP,2013-06-06 11:58:00,
2013-06-06 08:03:00,57.0,37.2,29.59,NE,45,2.3,7.2,48,0.00,,,0.00,WUHU21623XXSP,2013-06-06 12:03:00,
2013-06-06 08:08:00,57.0,37.2,29.59,SSE,157,1.6,2.7,48,0.00,,,0.00,WUHU21623XXSP,2013-06-06 12:08:00,
2013-06-06 08:13:00,57.0,37.2,29.59,NNE,31,1.6,2.5,48,0.00,,,0.00,WUHU21623XXSP,2013-06-06 12:13:00,
2013-06-06 08:18:00,57.4,37.6,29.58,NE,45,7.6,7.8,48,0.00,,,0.00,WUHU21623XXSP,2013-06-06 12:18:00,
2013-06-06 08:23:00,57.4,37.6,29.58,North,0,1.6,57.0,48,0.00,,,0.00,WUHU21623XXSP,2013-06-06 12:23:00,
2013-06-06 08:28:00,57.4,37.6,29.57,North,5,14.9,57.0,48,0.00,,,0.00,WUHU21623XXSP,2013-06-06 12:28:00,
2013-06-06 08:33:00,57.6,37.7,29.57,NW,315,1.8,57.0,48,0.00,,,0.00,WUHU21623XXSP,2013-06-06 12:33:00,
2013-06-06 08:38:00,57.6,37.7,29.57,NNE,25,2.9,57.0,48,0.00,,,0.00,WUHU21623XXSP,2013-06-06 12:38:00,
2013-06-06 08:43:00,57.7,37.8,29.57,North,4,3.8,57.0,48,0.00,,,0.00,WUHU21623XXSP,2013-06-06 12:43:00,
2013-06-06 08:48:00,57.7,37.8,29.57,NNW,337,2.3,57.0,48,0.00,,,0.00,WUHU21623XXSP,2013-06-06 12:48:00,
2013-06-06 08:53:00,57.9,38.0,29.57,North,0,38.6,57.0,48,0.00,,,0.00,WUHU21623XXSP,2013-06-06 12:53:00,
2013-06-06 08:58:00,57.9,38.0,29.57,North,0,57.0,57.0,48,0.00,,,0.00,WUHU21623XXSP,2013-06-06 12:58:00,
2013-06-06 09:03:00,58.1,38.2,29.57,North,2,15.9,57.0,48,0.00,,,0.00,WUHU21623XXSP,2013-06-06 13:03:00,
2013-06-06 09:08:00,58.5,38.6,29.57,North,0,28.9,57.0,48,0.00,,,0.00,WUHU21623XXSP,2013-06-06 13:08:00,
2013-06-06 09:13:00,58.6,38.7,29.57,NE,45,0.0,57.0,48,0.00,,,0.00,WUHU21623XXSP,2013-06-06 13:13:00,
2013-06-06 09:18:00,58.6,38.7,29.57,North,0,57.0,57.0,48,0.00,,,0.00,WUHU21623XXSP,2013-06-06 13:18:00,
2013-06-06 09:23:00,58.8,38.8,29.57,NNE,32,2.3,57.0,48,0.00,,,0.00,WUHU21623XXSP,2013-06-06 13:23:00,
2013-06-06 09:28:00,59.0,39.0,29.57,North,0,57.0,57.0,48,0.00,,,0.00,WUHU21623XXSP,2013-06-06 13:28:00,
2013-06-06 09:33:00,59.2,39.2,29.57,NW,312,1.8,57.0,48,0.00,,,0.00,WUHU21623XXSP,2013-06-06 13:33:00,
2013-06-06 09:38:00,59.4,39.4,29.57,North,0,3.8,57.0,48,0.00,,,0.00,WUHU21623XXSP,2013-06-06 13:38:00,
2013-06-06 09:43:00,59.4,39.4,29.57,ENE,71,1.6,57.0,48,0.00,,,0.00,WUHU21623XXSP,2013-06-06 13:43:00,
2013-06-06 09:48:00,59.4,39.4,29.57,North,0,57.0,57.0,48,0.00,,,0.00,WUHU21623XXSP,2013-06-06 13:48:00,
2013-06-06 09:53:00,59.5,39.5,29.57,NNW,343,2.3,57.0,48,0.00,,,0.00,WUHU21623XXSP,2013-06-06 13:53:00,
2013-06-06 09:58:00,59.7,39.7,29.57,NE,40,2.7,6.3,48,0.00,,,0.00,WUHU21623XXSP,2013-06-06 13:58:00,
2013-06-06 10:03:00,59.7,39.7,29.57,NNW,337,2.2,57.0,48,0.00,,,0.00,WUHU21623XXSP,2013-06-06 14:03:00,
2013-06-06 10:08:00,59.7,39.7,29.57,NNE,33,2.8,57.0,48,0.00,,,0.00,WUHU21623XXSP,2013-06-06 14:08:00,
2013-06-06 10:13:00,59.9,39.9,29.57,North,354,1.4,57.0,48,0.00,,,0.00,WUHU21623XXSP,2013-06-06 14:13:00,
2013-06-06 10:18:00,60.3,40.2,29.58,NE,45,0.0,57.0,48,0.00,,,0.00,WUHU21623XXSP,2013-06-06 14:18:00,
2013-06-06 10:23:00,60.4,40.3,29.58,SSW,202,1.6,57.0,48,0.00,,,0.00,WUHU21623XXSP,2013-06-06 14:23:00,
2013-06-06 10:28:00,61.0,40.9,29.57,ENE,67,0.0,3.8,48,0.00,,,0.00,WUHU21623XXSP,2013-06-06 14:28:00,
2013-06-06 10:33:00,61.5,41.3,29.57,NNW,328,2.7,5.1,48,0.00,,,0.00,WUHU21623XXSP,2013-06-06 14:33:00,
2013-06-06 10:38:00,62.1,41.9,29.58,North,0,57.0,57.0,48,0.00,,,0.00,WUHU21623XXSP,2013-06-06 14:38:00,
2013-06-06 10:43:00,62.2,42.0,29.57,North,353,1.9,57.0,48,0.00,,,0.00,WUHU21623XXSP,2013-06-06 14:43:00,
2013-06-06 10:48:00,62.4,42.2,29.57,North,355,2.5,57.0,48,0.00,,,0.00,WUHU21623XXSP,2013-06-06 14:48:00,
2013-06-06 10:53:00,62.4,42.2,29.57,North,0,20.1,57.0,48,0.00,,,0.00,WUHU21623XXSP,2013-06-06 14:53:00,
2013-06-06 10:58:00,62.4,42.2,29.57,North,356,13.3,57.0,48,0.00,,,0.00,WUHU21623XXSP,2013-06-06 14:58:00,
2013-06-06 11:03:00,62.2,42.0,29.57,NW,316,2.8,57.0,48,0.00,,,0.00,WUHU21623XXSP,2013-06-06 15:03:00,
2013-06-06 11:08:00,62.6,42.3,29.57,NW,315,2.7,57.0,48,0.00,,,0.00,WUHU21623XXSP,2013-06-06 15:08:00,
2013-06-06 11:13:00,62.4,42.2,29.57,NW,311,3.7,57.0,48,0.00,,,0.00,WUHU21623XXSP,2013-06-06 15:13:00,
2013-06-06 11:19:00,62.4,42.2,29.57,NNE,22,0.0,57.0,48,0.00,,,0.00,WUHU21623XXSP,2013-06-06 15:19:00,
2013-06-06 11:24:00,62.2,42.0,29.57,NNW,339,2.6,57.0,48,0.00,,,0.00,WUHU21623XXSP,2013-06-06 15:24:00,
2013-06-06 11:29:00,61.9,41.7,29.57,North,359,29.3,57.0,48,0.00,,,0.00,WUHU21623XXSP,2013-06-06 15:29:00,
2013-06-06 11:34:00,61.5,41.3,29.57,North,0,57.0,57.0,48,0.00,,,0.00,WUHU21623XXSP,2013-06-06 15:34:00,
2013-06-06 11:39:00,61.2,41.0,29.57,East,90,3.6,57.0,48,0.00,,,0.00,WUHU21623XXSP,2013-06-06 15:39:00,
2013-06-06 11:44:00,61.0,40.9,29.57,North,0,57.0,57.0,48,0.00,,,0.00,WUHU21623XXSP,2013-06-06 15:44:00,
2013-06-06 11:49:00,61.0,40.9,29.59,NE,45,0.0,57.0,48,0.00,,,0.00,WUHU21623XXSP,2013-06-06 15:49:00,
2013-06-06 11:54:00,60.8,40.7,29.59,NE,45,0.0,0.0,48,0.00,,,0.00,WUHU21623XXSP,2013-06-06 15:54:00,
2013-06-06 11:59:00,61.0,40.9,29.59,NNE,22,0.0,0.0,48,0.00,,,0.00,WUHU21623XXSP,2013-06-06 15:59:00,
2013-06-06 12:04:00,60.6,40.5,29.59,NNE,22,0.0,0.0,48,0.00,,,0.00,WUHU21623XXSP,2013-06-06 16:04:00,
2013-06-06 12:09:00,60.4,40.3,29.59,NE,45,0.0,0.0,48,0.00,,,0.00,WUHU21623XXSP,2013-06-06 16:09:00,
2013-06-06 12:14:00,60.3,40.2,29.59,NNE,29,0.6,1.1,48,0.00,,,0.00,WUHU21623XXSP,2013-06-06 16:14:00,
2013-06-06 12:19:00,60.3,40.2,29.58,NNE,22,0.0,1.1,48,0.00,,,0.00,WUHU21623XXSP,2013-06-06 16:19:00,
2013-06-06 12:24:00,60.4,40.3,29.58,North,0,2.0,2.7,48,0.00,,,0.00,WUHU21623XXSP,2013-06-06 16:24:00,
2013-06-06 12:29:00,60.6,40.5,29.58,North,0,1.7,3.6,48,0.00,,,0.00,WUHU21623XXSP,2013-06-06 16:29:00,
2013-06-06 12:34:00,61.0,40.9,29.58,North,0,1.7,3.6,48,0.00,,,0.00,WUHU21623XXSP,2013-06-06 16:34:00,
2013-06-06 12:39:00,61.3,41.1,29.58,North,353,2.8,4.5,48,0.00,,,0.00,WUHU21623XXSP,2013-06-06 16:39:00,
2013-06-06 12:44:00,61.3,41.1,29.57,NNW,347,9.9,57.0,48,0.00,,,0.00,WUHU21623XXSP,2013-06-06 16:44:00,
2013-06-06 12:49:00,61.5,41.3,29.57,NNW,330,2.0,57.0,48,0.00,,,0.00,WUHU21623XXSP,2013-06-06 16:49:00,
2013-06-06 12:54:00,61.5,41.3,29.57,North,0,1.6,57.0,48,0.00,,,0.00,WUHU21623XXSP,2013-06-06 16:54:00,
2013-06-06 12:59:00,61.7,41.5,29.56,North,351,2.4,57.0,48,0.00,,,0.00,WUHU21623XXSP,2013-06-06 16:59:00,
2013-06-06 13:04:00,62.1,41.9,29.56,NNW,345,2.0,57.0,48,0.00,,,0.00,WUHU21623XXSP,2013-06-06 17:04:00,
2013-06-06 13:09:00,62.2,42.0,29.56,NNW,337,4.7,57.0,48,0.00,,,0.00,WUHU21623XXSP,2013-06-06 17:09:00,
2013-06-06 13:14:00,62.2,42.0,29.56,North,2,15.7,57.0,48,0.00,,,0.00,WUHU21623XXSP,2013-06-06 17:14:00,
2013-06-06 13:19:00,62.2,42.0,29.56,NNW,335,3.3,57.0,48,0.00,,,0.00,WUHU21623XXSP,2013-06-06 17:19:00,
2013-06-06 13:24:00,62.2,42.0,29.56,North,351,8.2,57.0,48,0.00,,,0.00,WUHU21623XXSP,2013-06-06 17:24:00,
2013-06-06 13:29:00,62.4,42.2,29.55,NE,37,1.7,57.0,48,0.00,,,0.00,WUHU21623XXSP,2013-06-06 17:29:00,
2013-06-06 13:34:00,62.8,42.5,29.55,North,350,3.4,5.8,48,0.00,,,0.00,WUHU21623XXSP,2013-06-06 17:34:00,
2013-06-06 13:39:00,63.1,42.8,29.55,NNW,337,2.6,57.0,48,0.00,,,0.00,WUHU21623XXSP,2013-06-06 17:39:00,
2013-06-06 13:44:00,63.5,43.2,29.55,North,357,16.0,57.0,48,0.00,,,0.00,WUHU21623XXSP,2013-06-06 17:44:00,
2013-06-06 13:49:00,64.4,44.0,29.56,NE,53,3.2,57.0,48,0.00,,,0.00,WUHU21623XXSP,2013-06-06 17:49:00,
2013-06-06 13:54:00,64.8,44.4,29.56,North,359,29.9,57.0,48,0.00,,,0.00,WUHU21623XXSP,2013-06-06 17:54:00,
2013-06-06 13:59:00,64.8,44.4,29.56,NNW,335,3.0,57.0,48,0.00,,,0.00,WUHU21623XXSP,2013-06-06 17:59:00,
2013-06-06 14:04:00,65.1,44.6,29.56,North,0,4.3,57.0,48,0.00,,,0.00,WUHU21623XXSP,2013-06-06 18:04:00,
2013-06-06 14:09:00,65.3,44.8,29.56,North,2,9.3,57.0,48,0.00,,,0.00,WUHU21623XXSP,2013-06-06 18:09:00,
2013-06-06 14:14:00,66.0,45.5,29.57,North,359,8.3,57.0,48,0.00,,,0.00,WUHU21623XXSP,2013-06-06 18:14:00,
2013-06-06 14:19:00,66.6,46.0,29.56,NNE,14,7.8,57.0,48,0.00,,,0.00,WUHU21623XXSP,2013-06-06 18:19:00,
2013-06-06 14:24:00,66.9,46.3,29.56,North,0,38.4,57.0,48,0.00,,,0.00,WUHU21623XXSP,2013-06-06 18:24:00,
2013-06-06 14:29:00,67.1,46.5,29.56,North,357,12.0,57.0,48,0.00,,,0.00,WUHU21623XXSP,2013-06-06 18:29:00,
2013-06-06 14:34:00,67.1,46.5,29.56,North,0,57.0,57.0,48,0.00,,,0.00,WUHU21623XXSP,2013-06-06 18:34:00,
2013-06-06 14:39:00,67.1,46.5,29.56,North,0,2.2,57.0,48,0.00,,,0.00,WUHU21623XXSP,2013-06-06 18:39:00,
2013-06-06 14:44:00,67.1,46.5,29.57,North,354,8.4,57.0,48,0.00,,,0.00,WUHU21623XXSP,2013-06-06 18:44:00,
2013-06-06 14:49:00,67.1,46.5,29.56,NE,40,2.1,57.0,48,0.00,,,0.00,WUHU21623XXSP,2013-06-06 18:49:00,
2013-06-06 14:54:00,67.5,46.8,29.57,NE,45,3.3,7.8,48,0.00,,,0.00,WUHU21623XXSP,2013-06-06 18:54:00,
2013-06-06 15:00:00,67.5,46.8,29.56,South,172,2.5,57.0,48,0.00,,,0.00,WUHU21623XXSP,2013-06-06 19:00:00,
2013-06-06 15:05:00,67.8,47.1,29.56,North,356,15.9,57.0,48,0.00,,,0.00,WUHU21623XXSP,2013-06-06 19:05:00,
2013-06-06 15:10:00,67.8,47.1,29.55,NW,315,2.7,57.0,48,0.00,,,0.00,WUHU21623XXSP,2013-06-06 19:10:00,
2013-06-06 15:15:00,67.6,46.9,29.55,North,9,11.3,57.0,48,0.00,,,0.00,WUHU21623XXSP,2013-06-06 19:15:00,
2013-06-06 15:20:00,67.6,46.9,29.55,WSW,247,5.6,57.0,48,0.00,,,0.00,WUHU21623XXSP,2013-06-06 19:20:00,
2013-06-06 15:25:00,67.6,46.9,29.55,North,353,12.4,57.0,48,0.00,,,0.00,WUHU21623XXSP,2013-06-06 19:25:00,
2013-06-06 15:30:00,67.5,46.8,29.54,NNW,327,2.3,57.0,48,0.00,,,0.00,WUHU21623XXSP,2013-06-06 19:30:00,
2013-06-06 15:34:00,67.1,46.5,29.55,North,2,20.5,57.0,48,0.00,,,0.00,WUHU21623XXSP,2013-06-06 19:34:00,
2013-06-06 15:39:00,66.9,46.3,29.54,North,0,57.0,57.0,48,0.00,,,0.00,WUHU21623XXSP,2013-06-06 19:39:00,
2013-06-06 15:44:00,66.9,46.3,29.54,NNW,343,8.1,57.0,48,0.00,,,0.00,WUHU21623XXSP,2013-06-06 19:44:00,
2013-06-06 15:49:00,66.7,46.1,29.54,WSW,250,2.3,57.0,48,0.00,,,0.00,WUHU21623XXSP,2013-06-06 19:49:00,
2013-06-06 15:54:00,66.6,46.0,29.54,WSW,258,3.5,57.0,48,0.00,,,0.00,WUHU21623XXSP,2013-06-06 19:54:00,
2013-06-06 15:59:00,66.6,46.0,29.54,WSW,247,1.9,57.0,48,0.00,,,0.00,WUHU21623XXSP,2013-06-06 19:59:00,
2013-06-06 16:04:00,66.6,46.0,29.54,WSW,247,3.6,57.0,48,0.00,,,0.00,WUHU21623XXSP,2013-06-06 20:04:00,
2013-06-06 16:09:00,66.4,45.8,29.54,WSW,242,1.9,57.0,48,0.00,,,0.00,WUHU21623XXSP,2013-06-06 20:09:00,
2013-06-06 16:14:00,66.6,46.0,29.54,WSW,253,4.3,6.9,48,0.00,,,0.00,WUHU21623XXSP,2013-06-06 20:14:00,
2013-06-06 16:19:00,66.6,46.0,29.54,North,351,9.0,57.0,48,0.00,,,0.00,WUHU21623XXSP,2013-06-06 20:19:00,
2013-06-06 16:24:00,66.6,46.0,29.53,NNW,337,4.9,57.0,48,0.00,,,0.00,WUHU21623XXSP,2013-06-06 20:24:00,
2013-06-06 16:29:00,66.4,45.8,29.54,NW,322,2.9,57.0,48,0.00,,,0.00,WUHU21623XXSP,2013-06-06 20:29:00,
2013-06-06 16:34:00,66.7,46.1,29.54,North,354,13.2,57.0,48,0.00,,,0.00,WUHU21623XXSP,2013-06-06 20:34:00,
2013-06-06 16:39:00,67.1,46.5,29.54,NNW,334,5.2,57.0,48,0.00,,,0.00,WUHU21623XXSP,2013-06-06 20:39:00,
2013-06-06 16:44:00,67.1,46.5,29.54,North,352,9.9,57.0,48,0.00,,,0.00,WUHU21623XXSP,2013-06-06 20:44:00,
2013-06-06 16:49:00,67.3,46.7,29.55,NW,315,3.4,57.0,48,0.00,,,0.00,WUHU21623XXSP,2013-06-06 20:49:00,
2013-06-06 16:54:00,67.5,46.8,29.55,ENE,60,3.4,57.0,48,0.00,,,0.00,WUHU21623XXSP,2013-06-06 20:54:00,
2013-06-06 16:59:00,67.5,46.8,29.55,North,0,57.0,57.0,48,0.00,,,0.00,WUHU21623XXSP,2013-06-06 20:59:00,
2013-06-06 17:04:00,67.5,46.8,29.55,North,358,21.0,57.0,48,0.00,,,0.00,WUHU21623XXSP,2013-06-06 21:04:00,
2013-06-06 17:09:00,67.1,46.5,29.55,WNW,301,1.6,57.0,48,0.00,,,0.00,WUHU21623XXSP,2013-06-06 21:09:00,
2013-06-06 17:14:00,67.5,46.8,29.55,North,0,29.1,57.0,48,0.00,,,0.00,WUHU21623XXSP,2013-06-06 21:14:00,
2013-06-06 17:19:00,67.3,46.7,29.55,North,355,16.1,57.0,48,0.00,,,0.00,WUHU21623XXSP,2013-06-06 21:19:00,
2013-06-06 17:24:00,66.9,46.3,29.55,NW,326,2.8,57.0,48,0.00,,,0.00,WUHU21623XXSP,2013-06-06 21:24:00,
2013-06-06 17:29:00,66.6,46.0,29.55,North,0,57.0,57.0,48,0.00,,,0.00,WUHU21623XXSP,2013-06-06 21:29:00,
2013-06-06 17:34:00,66.4,45.8,29.55,NE,45,2.7,57.0,48,0.00,,,0.00,WUHU21623XXSP,2013-06-06 21:34:00,
2013-06-06 17:39:00,66.0,45.5,29.55,North,0,0.0,57.0,48,0.00,,,0.00,WUHU21623XXSP,2013-06-06 21:39:00,
2013-06-06 17:44:00,65.8,45.3,29.55,North,0,57.0,57.0,48,0.00,,,0.00,WUHU21623XXSP,2013-06-06 21:44:00,
2013-06-06 17:49:00,65.7,45.2,29.55,ENE,71,2.3,57.0,48,0.00,,,0.00,WUHU21623XXSP,2013-06-06 21:49:00,
2013-06-06 17:54:00,65.7,45.2,29.55,North,7,1.7,57.0,48,0.00,,,0.00,WUHU21623XXSP,2013-06-06 21:54:00,
2013-06-06 17:59:00,65.7,45.2,29.55,NE,34,2.6,57.0,48,0.00,,,0.00,WUHU21623XXSP,2013-06-06 21:59:00,
2013-06-06 18:04:00,65.5,45.0,29.55,NNW,346,2.6,57.0,48,0.00,,,0.00,WUHU21623XXSP,2013-06-06 22:04:00,
2013-06-06 18:09:00,65.3,44.8,29.55,NNW,345,9.4,57.0,48,0.00,,,0.00,WUHU21623XXSP,2013-06-06 22:09:00,
2013-06-06 18:14:00,65.1,44.6,29.55,NNW,330,3.3,57.0,48,0.00,,,0.00,WUHU21623XXSP,2013-06-06 22:14:00,
2013-06-06 18:19:00,64.9,44.5,29.55,NE,38,2.8,57.0,48,0.00,,,0.00,WUHU21623XXSP,2013-06-06 22:19:00,
2013-06-06 18:24:00,64.8,44.4,29.55,NW,321,2.4,5.1,48,0.00,,,0.00,WUHU21623XXSP,2013-06-06 22:24:00,
2013-06-06 18:30:00,64.8,44.4,29.55,NNW,337,4.5,5.1,48,0.00,,,0.00,WUHU21623XXSP,2013-06-06 22:30:00,
2013-06-06 18:35:00,64.6,44.2,29.55,North,357,31.1,57.0,48,0.00,,,0.00,WUHU21623XXSP,2013-06-06 22:35:00,
2013-06-06 18:40:00,64.6,44.2,29.55,NNE,16,2.0,57.0,48,0.00,,,0.00,WUHU21623XXSP,2013-06-06 22:40:00,
2013-06-06 18:45:00,64.6,44.2,29.55,NNW,337,4.5,57.0,48,0.00,,,0.00,WUHU21623XXSP,2013-06-06 22:45:00,
2013-06-06 18:50:00,64.6,44.2,29.55,North,0,57.0,57.0,48,0.00,,,0.00,WUHU21623XXSP,2013-06-06 22:50:00,
2013-06-06 18:55:00,64.6,44.2,29.55,NE,48,2.9,57.0,48,0.00,,,0.00,WUHU21623XXSP,2013-06-06 22:55:00,
2013-06-06 19:00:00,64.2,43.8,29.55,North,358,12.7,57.0,48,0.00,,,0.00,WUHU21623XXSP,2013-06-06 23:00:00,
2013-06-06 19:05:00,64.0,43.6,29.55,NE,44,2.6,57.0,48,0.00,,,0.00,WUHU21623XXSP,2013-06-06 23:05:00,
2013-06-06 19:10:00,64.0,43.6,29.55,North,2,12.8,57.0,48,0.00,,,0.00,WUHU21623XXSP,2013-06-06 23:10:00,
2013-06-06 19:15:00,63.9,43.5,29.54,NNW,337,2.9,57.0,48,0.00,,,0.00,WUHU21623XXSP,2013-06-06 23:15:00,
2013-06-06 19:20:00,63.5,43.2,29.55,NW,315,3.2,4.9,48,0.00,,,0.00,WUHU21623XXSP,2013-06-06 23:20:00,
2013-06-06 19:25:00,63.3,43.0,29.55,North,357,25.0,57.0,48,0.00,,,0.00,WUHU21623XXSP,2013-06-06 23:25:00,
2013-06-06 19:30:00,63.1,42.8,29.55,North,0,14.6,57.0,48,0.00,,,0.00,WUHU21623XXSP,2013-06-06 23:30:00,
2013-06-06 19:35:00,62.6,42.3,29.55,NNE,30,2.8,57.0,48,0.00,,,0.00,WUHU21623XXSP,2013-06-06 23:35:00,
2013-06-06 19:40:00,62.2,42.0,29.55,North,0,57.0,57.0,48,0.00,,,0.00,WUHU21623XXSP,2013-06-06 23:40:00,
2013-06-06 19:45:00,62.1,41.9,29.55,North,2,13.7,57.0,48,0.00,,,0.00,WUHU21623XXSP,2013-06-06 23:45:00,
2013-06-06 19:50:00,62.1,41.9,29.55,ENE,70,2.3,57.0,48,0.00,,,0.00,WUHU21623XXSP,2013-06-06 23:50:00,
2013-06-06 19:55:00,61.7,41.5,29.55,North,0,29.0,57.0,48,0.00,,,0.00,WUHU21623XXSP,2013-06-06 23:55:00,
2013-06-06 20:00:00,61.7,41.5,29.56,North,358,24.1,57.0,48,0.00,,,0.00,WUHU21623XXSP,2013-06-07 00:00:00,
2013-06-06 20:05:00,61.5,41.3,29.56,North,0,57.0,57.0,48,0.00,,,0.00,WUHU21623XXSP,2013-06-07 00:05:00,
2013-06-06 20:10:00,61.5,41.3,29.56,North,0,57.0,57.0,48,0.00,,,0.00,WUHU21623XXSP,2013-06-07 00:10:00,
2013-06-06 20:15:00,61.3,41.1,29.56,NE,47,3.3,57.0,48,0.00,,,0.00,WUHU21623XXSP,2013-06-07 00:15:00,
2013-06-06 20:20:00,61.3,41.1,29.56,NE,41,2.1,57.0,48,0.00,,,0.00,WUHU21623XXSP,2013-06-07 00:20:00,
2013-06-06 20:25:00,61.2,41.0,29.56,NNE,22,2.7,57.0,48,0.00,,,0.00,WUHU21623XXSP,2013-06-07 00:25:00,
2013-06-06 20:30:00,61.2,41.0,29.56,North,0,57.0,57.0,48,0.00,,,0.00,WUHU21623XXSP,2013-06-07 00:30:00,
2013-06-06 20:35:00,61.0,40.9,29.56,North,0,10.9,57.0,48,0.00,,,0.00,WUHU21623XXSP,2013-06-07 00:35:00,
2013-06-06 20:40:00,61.0,40.9,29.56,North,7,2.5,57.0,48,0.00,,,0.00,WUHU21623XXSP,2013-06-07 00:40:00,
2013-06-06 20:45:00,60.6,40.5,29.56,North,0,29.4,57.0,48,0.00,,,0.00,WUHU21623XXSP,2013-06-07 00:45:00,
2013-06-06 20:50:00,60.4,40.3,29.56,North,3,2.4,57.0,48,0.00,,,0.00,WUHU21623XXSP,2013-06-07 00:50:00,
2013-06-06 20:55:00,60.3,40.2,29.56,North,2,29.4,57.0,48,0.00,,,0.00,WUHU21623XXSP,2013-06-07 00:55:00,
2013-06-06 21:00:00,60.1,40.0,29.56,NW,315,1.6,57.0,48,0.00,,,0.00,WUHU21623XXSP,2013-06-07 01:00:00,
2013-06-06 21:05:00,59.9,39.9,29.56,NE,45,1.1,57.0,48,0.00,,,0.00,WUHU21623XXSP,2013-06-07 01:05:00,
2013-06-06 21:10:00,59.7,39.7,29.56,NW,315,0.0,57.0,48,0.00,,,0.00,WUHU21623XXSP,2013-06-07 01:10:00,
2013-06-06 21:15:00,59.5,39.5,29.56,NNE,22,2.3,57.0,48,0.00,,,0.00,WUHU21623XXSP,2013-06-07 01:15:00,
2013-06-06 21:20:00,59.4,39.4,29.56,NNW,337,0.0,57.0,48,0.00,,,0.00,WUHU21623XXSP,2013-06-07 01:20:00,
2013-06-06 21:25:00,59.4,39.4,29.56,WNW,292,0.0,57.0,48,0.00,,,0.00,WUHU21623XXSP,2013-06-07 01:25:00,
2013-06-06 21:30:00,59.2,39.2,29.56,WNW,292,0.0,57.0,48,0.00,,,0.00,WUHU21623XXSP,2013-06-07 01:30:00,
2013-06-06 21:35:00,58.8,38.8,29.56,NNE,22,0.0,57.0,48,0.00,,,0.00,WUHU21623XXSP,2013-06-07 01:35:00,
2013-06-06 21:40:00,58.6,38.7,29.57,NNE,22,0.9,57.0,48,0.00,,,0.00,WUHU21623XXSP,2013-06-07 01:40:00,
2013-06-06 21:45:00,58.5,38.6,29.57,North,0,57.0,57.0,48,0.00,,,0.00,WUHU21623XXSP,2013-06-07 01:45:00,
2013-06-06 21:50:00,58.5,38.6,29.58,NNE,22,0.0,57.0,48,0.00,,,0.00,WUHU21623XXSP,2013-06-07 01:50:00,
2013-06-06 21:55:00,58.3,38.4,29.58,NNE,22,0.0,57.0,48,0.00,,,0.00,WUHU21623XXSP,2013-06-07 01:55:00,
2013-06-06 22:00:00,58.1,38.2,29.58,North,1,29.0,57.0,48,0.00,,,0.00,WUHU21623XXSP,2013-06-07 02:00:00,
2013-06-06 22:05:00,58.1,38.2,29.58,ENE,67,0.0,57.0,48,0.00,,,0.00,WUHU21623XXSP,2013-06-07 02:05:00,
2013-06-06 22:10:00,57.9,38.0,29.58,North,0,57.0,57.0,48,0.00,,,0.00,WUHU21623XXSP,2013-06-07 02:10:00,
2013-06-06 22:15:00,57.9,38.0,29.58,North,0,57.0,57.0,48,0.00,,,0.00,WUHU21623XXSP,2013-06-07 02:15:00,
2013-06-06 22:20:00,57.7,37.8,29.58,North,356,15.6,57.0,48,0.00,,,0.00,WUHU21623XXSP,2013-06-07 02:20:00,
2013-06-06 22:25:00,57.7,37.8,29.58,North,0,57.0,57.0,48,0.00,,,0.00,WUHU21623XXSP,2013-06-07 02:25:00,
2013-06-06 22:30:00,57.7,37.8,29.58,North,359,12.6,57.0,48,0.00,,,0.00,WUHU21623XXSP,2013-06-07 02:30:00,
2013-06-06 22:35:00,57.9,38.0,29.58,North,0,57.0,57.0,48,0.00,,,0.00,WUHU21623XXSP,2013-06-07 02:35:00,
2013-06-06 22:40:00,57.7,37.8,29.57,North,359,39.3,57.0,48,0.00,,,0.00,WUHU21623XXSP,2013-06-07 02:40:00,
2013-06-06 22:45:00,57.7,37.8,29.57,North,357,24.2,57.0,48,0.00,,,0.00,WUHU21623XXSP,2013-06-07 02:45:00,
2013-06-06 22:51:00,57.6,37.7,29.57,North,0,23.5,57.0,48,0.00,,,0.00,WUHU21623XXSP,2013-06-07 02:51:00,
2013-06-06 22:56:00,57.6,37.7,29.58,North,0,0.0,57.0,48,0.00,,,0.00,WUHU21623XXSP,2013-06-07 02:56:00,
2013-06-06 23:01:00,57.6,37.7,29.58,North,351,7.8,57.0,48,0.00,,,0.00,WUHU21623XXSP,2013-06-07 03:01:00,
2013-06-06 23:06:00,57.6,37.7,29.58,North,359,29.8,57.0,48,0.00,,,0.00,WUHU21623XXSP,2013-06-07 03:06:00,
2013-06-06 23:11:00,57.4,37.6,29.58,NNW,344,1.9,57.0,48,0.00,,,0.00,WUHU21623XXSP,2013-06-07 03:11:00,
2013-06-06 23:16:00,57.4,37.6,29.58,North,0,28.7,57.0,48,0.00,,,0.00,WUHU21623XXSP,2013-06-07 03:16:00,
2013-06-06 23:21:00,57.4,37.6,29.58,North,359,29.5,57.0,48,0.00,,,0.00,WUHU21623XXSP,2013-06-07 03:21:00,
2013-06-06 23:26:00,57.2,37.4,29.58,NNW,337,2.2,57.0,48,0.00,,,0.00,WUHU21623XXSP,2013-06-07 03:26:00,
2013-06-06 23:31:00,57.2,37.4,29.57,NNW,337,1.1,57.0,48,0.00,,,0.00,WUHU21623XXSP,2013-06-07 03:31:00,
2013-06-06 23:36:00,57.0,37.2,29.57,North,0,1.7,2.2,48,0.00,,,0.00,WUHU21623XXSP,2013-06-07 03:36:00,
2013-06-06 23:41:00,57.0,37.2,29.58,NNW,345,1.4,1.8,48,0.00,,,0.00,WUHU21623XXSP,2013-06-07 03:41:00,
2013-06-06 23:46:00,56.8,37.0,29.57,North,0,1.6,2.5,48,0.00,,,0.00,WUHU21623XXSP,2013-06-07 03:46:00,
2013-06-06 23:51:00,56.7,36.9,29.57,NW,315,0.0,2.7,48,0.00,,,0.00,WUHU21623XXSP,2013-06-07 03:51:00,
2013-06-06 23:56:00,56.7,36.9,29.57,NNW,337,0.0,2.7,48,0.00,,,0.00,WUHU21623XXSP,2013-06-07 03:56:00,